Location: Brockett
(40.8000°S, 175.4500°E)
Time: 03:29:47
(UTC+00:00)

Cosmos 1745 Rocket - Pass Details

Date: 04 August 2024
Orbit: 951 x 998 km, 83.0° (Epoch: 07 September)

Event Time Altitude Azimuth Distance (km) Brightness Sun altitude
Rises 17:59:01 0° 335° (NNW) 3,654 6.8 -15.7°
Reaches altitude 10° 18:01:37 10° 329° (NNW) 2,722 6.1 -15.2°
Maximum altitude 18:07:34 45° 257° (WSW) 1,332 4.3 -14.1°
Drops below altitude 10° 18:13:39 10° 185° (S) 2,783 6.2 -12.9°
Sets 18:16:21 0° 178° (S) 3,744 7.0 -12.4°
